RH
31 27 29 36 26 21 20 27 48 76 99 100 100 100 100 75 47 35 44 40 37 39 55 62 67 53 48 46 36 36 32 30 31 29 30 29 26 23 24 22 20 20 20 19 19 16 17 20 19
32 31 34 39 30 33 32 25 26 32 73 100 100 99 96 98 90 58 50 52 58 79 70 62 48 60 53 57 64 61 50 39 34 36 32 29 26 26 21 19 19 16 16 15 16 15 15 16 17
37 36 38 43 42 51 57 50 39 28 57 68 86 62 65 59 41 42 89 82 96 82 67 58 70 71 58 45 41 42 42 36 30 21 28 41 36 30 36 35 29 24 24 28 27 23 19 17 17
43 40 43 47 55 69 75 66 60 30 48 35 27 67 66 45 47 89 100 100 100 98 92 99 79 51 49 52 48 42 36 32 26 27 24 29 38 29 20 26 24 24 24 18 22 18 19 18 20
34 37 44 50 61 81 90 78 58 45 39 35 40 48 68 88 100 100 100 99 99 95 75 71 63 57 56 53 45 40 30 22 21 10 11 16 26 26 20 17 17 24 29 25 29 30 26 20 20
18 44 50 59 60 88 75 83 73 47 36 42 46 50 72 81 100 94 79 72 69 70 65 66 69 66 60 50 39 19 15 11 11 10 11 12 12 12 10 9 10 13 15 18 20 24 26 26 25
14 20 39 52 69 79 53 48 60 53 40 48 65 99 100 100 100 91 78 66 61 58 47 58 59 64 45 20 15 11 11 11 14 16 16 16 16 15 15 14 14 13 12 11 10 11 15 18 18
18 13 25 35 63 49 32 30 51 51 56 72 91 100 96 90 79 65 61 77 73 62 71 68 65 49 20 13 12 14 13 14 17 16 18 17 19 24 33 37 30 22 15 16 15 15 14 14 13
24 17 17 9 11 27 33 41 45 70 76 87 100 100 97 73 85 78 92 89 66 64 65 64 29 16 15 15 16 15 19 24 30 34 36 34 34 31 33 33 39 36 41 27 28 30 25 19 17
26 22 20 12 10 15 20 36 50 94 93 91 98 95 94 88 78 73 73 64 68 47 37 14 16 18 17 19 18 19 23 36 42 50 59 72 70 68 58 66 63 58 46 46 44 46 44 32 28
33 28 17 20 10 10 11 11 18 42 77 93 100 100 93 78 62 62 56 61 22 16 14 16 16 17 18 18 21 23 28 41 68 80 73 69 65 53 57 53 45 55 63 63 51 46 43 40 35
38 34 23 23 16 15 8 7 10 32 58 84 100 100 96 83 38 38 19 15 12 13 15 16 16 19 23 25 36 48 56 50 51 39 45 49 56 49 42 34 37 35 35 31 40 42 48 42 42
42 41 29 27 20 19 8 9 9 20 41 83 96 88 43 12 14 12 10 10 12 14 15 15 20 27 34 54 53 44 38 31 26 32 38 36 33 40 42 49 48 40 38 32 28 27 34 41 39
47 39 39 29 29 19 10 12 8 10 11 28 38 17 9 10 10 10 11 12 13 17 24 27 33 39 41 46 36 36 34 31 30 35 48 49 54 54 53 45 40 44 51 49 42 36 36 34 33
55 43 42 33 37 17 14 14 8 10 7 11 8 9 9 9 10 11 13 15 18 21 23 26 29 40 41 37 30 30 29 31 34 38 41 49 52 48 45 43 42 42 40 42 51 53 48 48 42
71 55 44 46 37 26 16 15 10 13 7 8 8 8 9 9 10 10 12 14 17 20 24 30 36 43 40 33 31 31 32 33 36 41 41 40 48 52 53 58 58 52 52 59 60 58 55 59 59
90 64 48 47 50 36 28 21 16 11 8 7 7 8 9 9 11 13 13 15 16 19 23 28 34 33 28 30 34 36 35 38 39 46 43 42 44 44 52 59 72 59 50 53 57 74 77 74 78
100 79 65 51 63 45 37 20 20 11 17 7 8 8 10 10 12 13 14 15 18 21 24 26 25 25 28 32 32 35 41 52 68 44 31 31 37 63 65 63 63 68 62 54 58 72 81 74 71
88 97 71 61 64 56 44 36 39 16 17 8 8 9 10 11 11 12 15 19 20 21 22 22 25 28 32 32 39 73 96 87 61 36 43 44 45 63 85 52 62 98 70 80 82 85 87 93 63
86 100 96 71 58 83 64 58 34 42 22 10 8 9 10 10 11 14 14 16 18 19 22 25 32 40 42 72 93 100 83 71 62 46 51 55 54 58 54 78 77 53 93 100 100 97 54 85 98
89 100 100 93 77 79 83 61 21 59 32 21 12 11 10 11 12 15 17 18 20 25 35 43 66 89 100 100 93 72 60 78 62 67 72 64 51 45 47 48 46 37 40 47 62 68 67 62 46
89 100 100 100 99 83 90 64 60 71 67 39 50 30 12 13 15 26 30 47 54 58 68 79 98 100 100 88 82 71 56 54 67 83 93 72 74 86 77 61 54 56 74 75 56 69 85 90 87
70 100 100 100 100 86 87 82 79 75 84 86 66 57 63 69 59 61 80 85 94 100 100 100 97 86 73 56 55 58 60 84 99 100 96 96 100 100 90 84 80 99 100 92 86 96 93 100 100
65 100 100 100 100 96 85 73 84 80 87 91 87 97 99 97 93 97 100 100 100 100 100 98 84 65 43 42 41 56 78 100 100 98 98 100 100 100 100 100 100 100 98 81 99 100 100 100 100
96 94 100 100 100 100 100 89 90 97 95 80 87 98 94 92 98 100 100 100 98 82 88 85 81 63 47 52 73 83 94 92 96 100 100 100 99 99 98 98 92 88 100 100 100 100 100 100 100
100 100 100 100 100 100 100 100 100 99 96 100 100 100 100 100 100 100 91 92 84 63 69 70 62 55 71 87 92 89 84 92 98 100 100 96 73 74 77 78 93 100 100 100 100 100 100 100 100
100 100 100 100 100 100 100 100 100 100 98 100 100 100 100 83 67 97 100 88 72 70 73 71 70 80 96 99 100 100 100 99 94 73 74 79 79 79 91 100 100 96 98 100 100 100 100 100 100
100 100 100 100 100 98 100 100 100 100 98 80 98 92 100 100 100 100 91 86 77 64 68 90 100 100 100 100 100 98 90 86 93 87 85 81 96 99 99 99 96 96 100 100 100 100 100 100 99
100 100 100 100 100 100 100 100 100 96 89 81 100 99 94 93 91 87 85 87 92 100 100 100 100 100 100 90 86 88 86 81 86 88 89 97 100 100 98 98 100 100 100 100 100 98 83 62 51
100 100 100 93 100 100 100 100 100 95 87 85 94 99 92 100 97 99 100 100 100 100 100 100 94 80 72 76 89 88 89 85 90 87 90 100 98 99 100 100 100 100 100 100 83 66 52 48 48
Wind_Speed
43 37 33 40 28 17 17 16 13 13 11 12 10 4 5 5 3 5 8 11 13 8 9 10 10 10 12 13 16 17 19 21 22 24 27 28 27 28 26 23 23 24 27 27 25 25 24 26 23
39 34 36 42 27 27 18 10 4 6 9 12 9 7 4 7 9 18 17 17 11 8 10 9 13 14 15 15 16 19 17 20 25 27 26 25 25 25 24 23 22 22 25 27 27 27 26 27 29
33 35 26 36 31 31 29 26 17 3 6 6 11 10 10 14 16 18 15 14 8 11 12 13 13 14 17 19 20 21 23 25 28 33 29 30 30 30 32 33 32 35 33 33 33 32 31 29 30
38 33 24 32 33 34 34 29 19 7 5 6 4 12 14 15 14 11 9 9 8 9 12 13 14 18 19 18 21 24 27 33 37 41 38 35 36 35 35 37 33 34 33 30 33 34 35 35 34
42 34 24 27 29 27 33 24 15 14 13 8 8 12 12 10 5 5 4 8 11 9 10 11 14 20 20 24 27 29 34 36 37 31 28 30 33 37 38 38 38 39 37 37 37 38 37 35 34
40 36 33 24 29 31 29 20 16 16 18 19 16 12 13 8 4 5 9 12 13 16 18 23 23 27 26 27 28 21 19 18 20 20 19 18 19 23 27 28 31 30 34 38 38 38 41 42 42
38 36 31 26 22 23 17 17 12 14 12 22 20 13 8 9 8 11 14 18 17 17 23 23 23 25 21 13 11 13 13 11 14 20 20 19 18 20 20 18 19 20 22 24 25 28 33 36 40
34 33 31 24 20 22 15 15 17 14 15 17 19 12 12 15 14 17 17 18 20 24 26 26 25 13 9 11 13 12 14 20 26 23 23 26 28 29 30 31 29 26 17 18 16 16 15 19 24
30 27 29 26 27 21 19 15 15 17 15 15 11 12 13 15 11 16 17 27 27 29 24 21 8 9 11 13 10 13 17 19 21 22 24 24 24 25 26 28 28 27 29 26 26 25 23 19 18
33 28 24 26 26 23 21 17 13 12 12 13 9 11 14 14 20 25 28 31 27 14 7 6 7 9 10 10 10 11 17 19 20 21 22 25 25 25 23 24 25 27 26 25 24 25 25 22 21
26 28 17 22 23 26 21 19 13 10 10 11 14 15 20 27 28 29 30 25 6 5 4 5 6 6 8 11 13 16 18 20 22 24 23 25 25 26 27 27 24 23 24 26 24 24 25 26 22
19 27 24 21 19 24 17 17 15 13 12 13 17 20 24 29 25 23 10 3 6 4 3 3 5 9 12 13 16 17 20 21 22 24 24 25 26 29 30 29 28 27 25 24 22 24 26 26 27
13 20 21 20 16 20 13 15 11 10 8 11 16 19 21 11 5 3 4 4 3 4 2 4 8 11 15 18 19 19 20 22 23 25 27 27 27 29 30 30 30 31 32 32 30 28 28 29 30
13 14 21 19 18 14 11 16 10 10 6 8 10 10 6 6 6 3 3 4 3 4 6 7 11 15 16 20 18 19 22 21 22 23 26 26 28 28 28 28 28 29 31 33 34 35 35 35 35
19 11 18 17 17 15 8 12 6 10 5 5 2 3 1 3 5 7 8 4 1 3 6 9 12 16 18 15 15 18 22 23 23 24 26 28 28 29 29 29 30 32 33 32 33 36 36 37 38
17 16 18 20 14 12 15 7 6 6 2 3 3 3 8 8 7 8 7 6 6 6 7 11 13 15 16 17 19 21 21 24 26 29 29 31 30 32 35 36 36 35 34 37 38 39 40 41 41
19 17 18 22 14 14 15 12 6 3 7 7 7 7 11 13 12 10 10 9 9 8 8 9 14 14 17 20 22 25 29 32 35 37 35 30 32 30 33 35 39 37 35 37 37 37 38 41 45
30 19 20 23 18 17 17 17 14 13 8 12 10 11 15 17 16 15 13 11 12 12 12 14 16 18 20 23 28 34 36 40 42 41 40 41 39 35 36 36 36 40 39 37 39 43 45 43 43
33 25 29 26 25 18 21 21 17 15 13 16 16 17 18 19 19 18 18 18 18 20 21 22 22 22 26 30 33 39 43 43 46 47 43 44 42 39 36 36 38 41 43 41 42 42 42 47 49
34 35 27 26 27 22 26 24 22 19 18 18 20 19 22 23 22 23 25 25 26 28 28 29 29 30 33 38 41 44 46 48 51 52 50 47 41 41 39 42 40 44 43 45 51 52 51 49 50
39 37 35 26 29 33 29 29 29 24 23 21 22 22 25 27 29 29 29 30 33 34 35 37 34 31 36 46 44 47 52 54 56 58 57 52 52 50 49 50 51 54 54 55 56 59 62 62 60
41 40 39 31 31 36 33 31 32 31 29 25 23 26 29 30 34 35 36 37 39 41 40 41 42 46 54 50 51 51 55 59 61 61 60 57 58 60 57 56 60 62 61 63 64 65 66 66 66
43 44 42 38 35 38 37 37 34 36 35 33 31 33 34 37 40 41 43 45 48 52 54 55 57 58 52 51 54 57 58 59 61 61 58 59 61 63 66 65 71 70 69 71 73 74 74 72 71
47 46 46 42 43 41 40 42 39 39 40 41 40 42 45 46 48 50 50 52 53 52 51 52 58 55 55 58 61 60 61 63 63 63 63 65 68 73 76 78 82 78 78 77 78 79 78 76 73
49 45 48 44 45 45 43 46 46 45 43 44 48 49 49 50 51 53 47 48 53 56 55 58 56 58 63 66 61 63 64 66 69 72 73 78 81 82 86 89 87 84 85 85 84 82 80 75 73
46 45 48 48 46 47 46 51 52 49 50 50 51 52 54 49 52 46 56 57 57 60 60 59 63 67 66 65 67 69 72 76 80 81 84 89 94 94 90 91 89 87 84 83 80 77 75 74 72
48 45 42 47 51 46 50 55 55 49 50 54 58 55 53 54 56 54 51 59 62 63 64 65 68 69 69 71 74 77 82 86 89 94 95 93 91 90 90 86 85 82 78 76 75 74 73 72 69
49 47 46 46 47 49 48 42 42 47 45 42 40 45 44 46 53 59 66 63 65 70 71 68 70 73 77 82 84 88 90 93 92 92 90 89 88 86 84 82 82 79 75 74 74 73 72 71 73
53 49 46 49 46 46 42 43 45 48 46 47 42 50 52 54 60 62 63 67 67 67 69 73 77 82 85 88 90 91 90 91 89 89 90 88 82 82 82 81 77 76 73 72 72 73 77 80 82
56 56 56 56 50 48 48 47 51 51 50 53 55 56 57 58 58 59 62 65 68 72 75 80 84 88 90 89 87 86 86 86 89 89 85 82 82 81 78 74 73 73 74 76 79 82 86 89 92
Wind_Direction
24 23 21 27 42 63 71 106 113 106 115 114 138 138 172 92 61 351 351 350 339 301 291 289 289 298 302 298 302 298 301 300 299 292 290 289 294 293 293 297 299 289 285 285 286 285 280 280 283
12 17 22 20 23 25 29 33 61 132 85 85 117 133 157 17 4 350 340 333 324 271 298 293 311 301 311 320 306 298 306 315 312 305 304 299 292 290 279 285 280 279 279 281 283 281 278 280 278
17 16 14 16 20 11 12 8 19 160 97 74 74 39 11 350 348 336 322 331 270 281 296 311 319 318 314 310 314 312 304 310 318 317 295 292 292 292 285 287 292 288 291 288 290 286 285 287 288
14 12 17 10 10 6 359 358 344 12 222 182 159 347 340 336 334 330 310 306 289 280 310 299 303 299 304 313 314 312 309 304 301 307 299 287 287 285 288 286 284 283 291 295 289 293 290 287 291
17 21 10 2 4 356 356 346 347 8 13 341 319 321 339 356 343 330 290 291 298 326 311 297 301 308 314 320 315 315 319 316 309 318 308 299 289 285 286 284 282 281 281 281 278 280 280 278 279
16 13 12 359 348 346 348 345 337 353 357 9 356 353 342 331 8 358 327 332 315 311 309 302 310 315 321 319 323 335 338 350 346 350 344 342 339 321 312 305 298 292 287 282 278 274 276 277 278
18 14 15 9 344 344 356 33 8 333 331 357 4 356 356 1 352 332 321 326 321 324 329 328 324 326 340 341 360 1 5 359 33 39 41 29 35 32 26 9 357 347 329 321 308 290 279 281 280
22 17 8 4 5 358 16 40 38 23 6 10 4 3 353 343 342 331 328 328 325 326 328 323 331 337 12 6 359 24 33 38 37 31 28 29 29 32 29 29 35 35 27 19 12 358 333 310 294
16 20 16 10 14 14 16 35 41 33 12 1 348 326 330 335 339 333 317 321 318 322 320 330 6 34 19 33 43 39 36 30 28 25 22 23 22 15 13 14 16 16 19 11 10 6 2 3 357
8 13 11 14 19 14 18 11 19 9 15 7 334 331 339 336 331 321 317 314 318 316 354 60 59 65 56 40 35 25 17 14 10 7 5 7 6 6 10 6 5 4 6 5 2 359 353 352 350
3 2 7 13 14 10 19 16 33 34 10 349 330 336 325 326 320 312 312 313 330 102 71 73 65 45 34 26 15 5 360 358 356 356 360 2 357 359 357 359 1 358 355 348 347 346 345 343 341
353 357 3 359 4 17 14 21 24 25 4 341 319 317 312 313 318 316 326 99 123 130 122 73 16 25 17 5 356 349 349 353 357 1 2 359 359 357 359 359 356 352 349 342 340 338 334 329 334
333 343 359 352 346 3 12 12 25 20 6 330 318 322 332 344 20 40 109 129 142 125 55 8 26 3 357 352 350 350 359 360 4 4 357 357 355 353 353 350 346 342 340 341 337 331 326 322 322
327 318 339 350 338 355 351 16 12 18 17 332 321 352 23 57 86 67 130 142 131 69 51 8 357 351 346 339 350 346 344 349 350 346 342 340 340 339 338 336 339 340 338 337 334 332 329 325 318
315 295 315 337 336 308 333 350 26 19 353 306 331 26 8 157 153 167 147 149 168 359 342 338 333 330 329 337 339 339 341 338 334 334 330 330 330 331 332 334 334 333 333 331 326 324 323 324 322
280 292 294 321 330 296 299 318 318 13 195 237 189 177 212 212 205 217 233 242 253 280 308 314 314 310 316 321 325 326 328 328 324 328 324 326 322 322 324 322 324 323 323 326 327 327 323 320 318
284 286 290 297 304 297 284 297 283 273 261 217 204 207 231 227 228 231 233 245 262 274 287 293 295 299 306 307 309 310 315 317 318 318 323 319 323 325 322 320 318 319 318 316 315 314 316 317 314
287 272 294 299 290 276 280 276 274 251 263 230 227 224 227 236 241 243 244 258 271 278 281 284 286 289 296 302 307 310 309 310 310 311 314 315 321 318 314 317 314 313 313 313 311 314 315 313 314
276 263 286 287 284 286 264 266 272 264 270 249 241 244 243 244 240 247 256 263 268 269 270 272 280 293 292 294 295 302 308 306 302 308 313 313 315 321 307 306 306 312 308 307 311 308 308 308 309
266 267 267 275 278 276 265 270 257 252 254 255 250 252 256 256 256 261 268 272 274 275 277 278 284 290 293 301 299 303 300 299 298 299 305 310 311 310 309 302 305 308 307 305 303 303 305 301 301
263 261 262 265 281 263 261 264 255 258 248 255 255 257 262 267 269 270 271 273 276 277 279 281 289 296 300 300 296 298 298 298 296 297 301 304 307 306 305 307 302 306 306 304 301 299 300 301 302
263 256 257 255 271 255 261 259 259 259 258 253 260 267 269 268 268 272 275 276 276 279 282 288 295 294 296 291 291 291 293 295 295 296 298 303 305 304 303 305 307 303 301 302 302 301 297 297 297
257 250 253 252 256 254 258 256 257 261 267 267 264 266 270 271 272 275 276 282 290 296 298 301 292 288 292 289 289 293 294 295 296 297 298 300 301 301 300 301 306 305 301 299 298 297 298 296 295
256 251 252 252 254 253 255 256 259 263 265 267 268 272 276 276 278 283 290 294 298 296 292 288 288 289 289 289 290 291 295 299 298 295 295 294 296 296 299 301 304 301 301 300 297 297 298 298 295
254 256 252 254 256 256 255 260 259 260 264 267 269 274 278 282 285 288 293 297 291 292 287 289 291 296 300 297 296 295 296 295 295 295 296 296 298 298 299 302 301 300 298 298 299 299 299 299 297
249 256 253 253 259 261 269 264 265 270 272 270 273 277 284 293 289 297 288 292 291 290 293 293 295 297 299 299 298 296 296 297 297 297 298 299 301 300 299 300 301 303 302 299 299 299 298 298 296
252 248 256 255 249 255 263 267 269 276 284 283 281 290 288 291 288 287 291 290 291 293 296 296 297 300 300 300 298 298 297 298 299 301 303 301 301 302 303 304 304 303 303 304 302 300 297 296 296
249 249 252 250 253 258 260 267 273 278 278 274 282 281 289 284 292 287 286 290 296 298 299 300 299 299 299 300 300 300 302 304 303 303 303 304 305 305 305 304 303 305 304 301 299 298 298 295 293
251 253 246 252 254 259 260 266 267 264 270 269 280 284 282 286 289 293 290 293 298 299 299 300 300 300 301 301 303 304 304 303 304 305 304 307 306 306 305 305 304 302 300 299 299 297 296 295 294
254 249 251 250 251 257 257 264 270 271 273 274 278 283 286 292 292 294 295 296 296 298 298 300 301 303 303 303 302 302 303 304 303 304 304 303 303 305 305 304 301 300 300 298 297 296 297 297 296